Date String (YYYY-MM-DD hh:mm:ss) UTC,Instrument flags,absolute air pressure of the measurement (hPa),sample flow rate (lpm),inlet stack bypass flow (lpm),air temperature of the measurement (°C),ambient temperature measured by the external sensor (°C),aerosol sample conditioner tube jacket temperature (°C),OPC LED temperature (°C),internal box temperature (°C),relative humidity of the measurement (%),span deviation,mass concentration of particles derived from Lorenz-Mie calculation of OPC scattering (μg/m³),mass concentration of particles derived from Lorenz-Mie calculation of OPC scattering (μg/m³),mass concentration of particles derived from Lorenz-Mie calculation of OPC scattering (μg/m³)
DateTimeUTC,F1_M11,P_M11,Q1_M11,Q2_M11,T1_M11,T2_M11,T3_M11,T4_M11,T5_M11,U1_M11,ZSPAN_M11,X2_M11,X0_M11,X1_M11
2024-06-06 16:00:00,SystemResetWarning,0833.8,5.00,000.00,029.3,028.3,000.0,038.0,030.9,029.3,0000.0,0003.99,0020.15,0002.15
2024-06-06 16:01:00,SystemResetWarning,0833.7,5.00,000.00,029.3,028.3,000.0,038.0,030.9,029.9,0000.0,0004.04,0019.86,0002.17
2024-06-06 16:02:00,SystemResetWarning,0833.7,5.00,000.00,029.3,028.2,000.0,038.0,030.9,030.1,0000.0,0004.07,0020.22,0002.15
2024-06-06 16:03:00,SystemResetWarning,0833.7,4.99,000.00,029.3,028.2,000.0,038.0,030.9,030.2,0000.0,0004.05,0017.83,0002.14
2024-06-06 16:04:00,SystemResetWarning,0833.7,5.00,000.00,029.3,028.2,000.0,038.0,030.9,030.1,0000.0,0004.06,0016.43,0002.13
2024-06-06 16:05:00,SystemResetWarning,0833.7,5.01,000.00,029.3,028.2,000.0,038.0,030.9,029.9,0000.0,0004.08,0016.44,0002.14
2024-06-06 16:06:00,SystemResetWarning,0833.7,5.00,000.00,029.2,028.1,000.0,037.9,030.8,029.7,0000.0,0004.08,0015.98,0002.13
2024-06-06 16:07:00,SystemResetWarning,0833.7,5.00,000.00,029.2,028.1,000.0,037.9,030.8,029.6,0000.0,0004.10,0015.92,0002.13
2024-06-06 16:08:00,SystemResetWarning,0833.7,5.00,000.00,029.1,028.0,000.0,037.9,030.7,029.8,0000.0,0004.10,0016.50,0002.12
2024-06-06 16:09:00,SystemResetWarning,0833.7,5.00,000.00,029.1,027.9,000.0,037.9,030.7,029.8,0000.0,0004.11,0017.57,0002.11
2024-06-06 16:10:00,SystemResetWarning,0833.7,5.00,000.00,029.1,028.0,000.0,037.9,030.7,029.7,0000.0,0004.05,0017.61,0002.11
2024-06-06 16:11:00,SystemResetWarning,0833.7,5.00,000.00,029.1,028.0,000.0,037.9,030.7,029.5,0000.0,0004.01,0017.52,0002.11
2024-06-06 16:12:00,SystemResetWarning,0833.7,5.00,000.00,029.0,027.9,000.0,037.8,030.6,029.5,0000.0,0003.94,0017.33,0002.09
2024-06-06 16:13:00,SystemResetWarning,0833.6,5.00,000.00,029.0,027.9,000.0,037.8,030.6,029.9,0000.0,0003.92,0016.85,0002.10
2024-06-06 16:14:00,SystemResetWarning,0833.7,5.00,000.00,029.0,027.9,000.0,037.8,030.6,029.7,0000.0,0003.94,0016.87,0002.12
2024-06-06 16:15:00,SystemResetWarning,0833.7,5.00,000.00,029.0,028.0,000.0,037.8,030.7,029.8,0000.0,0003.94,0017.60,0002.12
2024-06-06 16:16:00,SystemResetWarning,0833.7,5.00,000.00,029.0,028.2,000.0,037.8,030.8,029.7,0000.0,0003.92,0017.99,0002.12
2024-06-06 16:17:00,SystemResetWarning,0833.7,5.00,000.00,029.1,028.3,000.0,037.8,030.9,029.4,0000.0,0003.87,0017.43,0002.14
2024-06-06 16:18:00,SystemResetWarning,0833.7,5.00,000.00,029.1,028.5,000.0,037.8,031.0,028.4,0000.0,0003.81,0017.61,0002.15
2024-06-06 16:19:00,SystemResetWarning,0833.7,5.00,000.00,029.2,028.7,000.0,037.8,031.1,028.6,0000.0,0003.80,0017.76,0002.16
2024-06-06 16:20:00,SystemResetWarning,0833.7,5.00,000.00,029.3,028.8,000.0,037.8,031.2,029.6,0000.0,0003.77,0017.07,0002.17
2024-06-06 16:21:00,SystemResetWarning,0833.8,5.00,000.00,029.4,029.0,000.0,037.8,031.3,029.2,0000.0,0003.81,0017.90,0002.16
2024-06-06 16:22:00,SystemResetWarning,0833.7,4.99,000.00,029.4,029.1,000.0,037.8,031.3,029.2,0000.0,0003.79,0017.17,0002.16
2024-06-06 16:23:00,SystemResetWarning,0833.7,5.00,000.00,029.5,029.1,000.0,037.9,031.4,029.1,0000.0,0003.81,0017.56,0002.17
2024-06-06 16:24:00,SystemResetWarning,0833.8,5.00,000.00,029.5,029.2,000.0,037.9,031.4,029.1,0000.0,0003.85,0017.56,0002.18
2024-06-06 16:25:00,SystemResetWarning,0833.7,5.01,000.00,029.6,029.3,000.0,037.9,031.5,028.8,0000.0,0003.86,0017.42,0002.19
2024-06-06 16:26:00,SystemResetWarning,0833.8,5.00,000.00,029.7,029.4,000.0,037.9,031.6,028.9,0000.0,0003.85,0017.60,0002.21
2024-06-06 16:27:00,SystemResetWarning,0833.7,5.01,000.00,029.7,029.4,000.0,038.0,031.6,028.4,0000.0,0003.86,0016.16,0002.21
2024-06-06 16:28:00,SystemResetWarning,0833.8,5.00,000.00,029.8,029.5,000.0,038.0,031.7,028.6,0000.0,0003.86,0017.03,0002.21
2024-06-06 16:29:00,SystemResetWarning,0833.8,5.00,000.00,029.8,029.5,000.0,038.1,031.7,028.4,0000.0,0003.94,0017.22,0002.21
2024-06-06 16:30:00,SystemResetWarning,0833.8,4.99,000.00,029.9,029.6,000.0,038.1,031.7,028.2,0000.0,0003.97,0017.68,0002.22
2024-06-06 16:31:00,SystemResetWarning,0833.8,5.00,000.00,029.9,029.6,000.0,038.1,031.8,028.1,0000.0,0003.99,0018.22,0002.23
2024-06-06 16:32:00,SystemResetWarning,0833.7,5.00,000.00,030.0,029.6,000.0,038.2,031.8,028.3,0000.0,0004.00,0018.02,0002.25
2024-06-06 16:33:00,SystemResetWarning,0833.7,5.00,000.00,030.0,029.7,000.0,038.2,031.9,028.1,0000.0,0004.03,0019.18,0002.27
2024-06-06 16:34:00,SystemResetWarning,0833.7,5.00,000.00,030.1,029.7,000.0,038.2,031.9,027.9,0000.0,0004.04,0018.77,0002.29
2024-06-06 16:35:00,SystemResetWarning,0833.7,5.01,000.00,030.1,029.7,000.0,038.3,032.0,027.6,0000.0,0003.98,0018.58,0002.29
2024-06-06 16:36:00,SystemResetWarning,0833.7,5.00,000.00,030.2,029.8,000.0,038.3,032.0,027.9,0000.0,0003.96,0018.39,0002.28
2024-06-06 16:37:00,SystemResetWarning,0833.7,5.01,000.00,030.2,029.8,000.0,038.4,032.0,027.4,0000.0,0003.94,0018.10,0002.28
2024-06-06 16:38:00,SystemResetWarning,0833.7,5.00,000.00,030.2,029.9,000.0,038.4,032.1,026.8,0000.0,0003.90,0018.64,0002.27
2024-06-06 16:39:00,SystemResetWarning,0833.7,5.00,000.00,030.3,029.9,000.0,038.4,032.1,026.0,0000.0,0003.89,0018.98,0002.27
2024-06-06 16:40:00,SystemResetWarning,0833.8,4.99,000.00,030.3,029.9,000.0,038.5,032.1,026.6,0000.0,0003.80,0018.05,0002.25
2024-06-06 16:41:00,SystemResetWarning,0833.7,5.00,000.00,030.4,030.0,000.0,038.5,032.2,026.9,0000.0,0003.72,0016.71,0002.22
2024-06-06 16:42:00,SystemResetWarning,0833.7,5.00,000.00,030.4,030.0,000.0,038.6,032.2,027.4,0000.0,0003.73,0016.12,0002.21
2024-06-06 16:43:00,SystemResetWarning,0833.7,5.00,000.00,030.4,029.1,000.0,038.6,031.7,027.1,0000.0,0003.73,0015.35,0002.20
2024-06-06 16:44:00,SystemResetWarning,0833.7,5.01,000.00,030.0,027.1,000.0,038.7,030.7,027.6,0000.0,0003.74,0015.27,0002.19
2024-06-06 16:45:00,SystemResetWarning,0833.6,5.02,000.00,029.7,026.8,000.0,038.6,030.5,027.9,0000.0,0003.82,0016.00,0002.17
2024-06-06 16:46:00,SystemResetWarning,0833.7,4.99,000.00,029.6,027.2,000.0,038.5,030.7,028.3,0000.0,0003.86,0016.99,0002.15
2024-06-06 16:47:00,SystemResetWarning,0833.7,4.99,000.00,029.6,027.6,000.0,038.4,030.9,028.3,0000.0,0003.85,0018.04,0002.13
2024-06-06 16:48:00,SystemResetWarning,0833.7,5.00,000.00,029.6,027.9,000.0,038.3,031.1,027.8,0000.0,0003.84,0018.17,0002.13
2024-06-06 16:49:00,SystemResetWarning,0833.7,5.00,000.00,029.7,028.2,000.0,038.3,031.2,028.1,0000.0,0003.91,0018.61,0002.13
2024-06-06 16:50:00,SystemResetWarning,0833.7,5.01,000.00,029.7,028.5,000.0,038.2,031.3,027.6,0000.0,0003.97,0018.16,0002.14
2024-06-06 16:51:00,SystemResetWarning,0833.7,5.00,000.00,029.7,028.7,000.0,038.2,031.4,027.9,0000.0,0004.04,0019.09,0002.16
2024-06-06 16:52:00,SystemResetWarning,0833.7,4.99,000.00,029.8,028.9,000.0,038.2,031.5,028.1,0000.0,0004.08,0019.35,0002.17
2024-06-06 16:53:00,SystemResetWarning,0833.7,5.00,000.00,029.8,029.1,000.0,038.2,031.6,028.9,0000.0,0004.07,0020.18,0002.18
2024-06-06 16:54:00,SystemResetWarning,0833.7,5.00,000.00,029.9,029.2,000.0,038.2,031.6,028.5,0000.0,0004.08,0021.49,0002.17
2024-06-06 16:55:00,SystemResetWarning,0833.7,5.00,000.00,029.9,029.3,000.0,038.2,031.7,028.4,0000.0,0004.07,0022.08,0002.18
2024-06-06 16:56:00,SystemResetWarning,0833.7,5.00,000.00,030.0,029.4,000.0,038.3,031.8,028.1,0000.0,0004.00,0022.31,0002.19
2024-06-06 16:57:00,SystemResetWarning,0833.7,5.00,000.00,030.0,029.5,000.0,038.3,031.8,028.4,0000.0,0003.99,0020.69,0002.20
2024-06-06 16:58:00,SystemResetWarning,0833.7,4.99,000.00,030.1,029.6,000.0,038.3,031.9,029.0,0000.0,0003.98,0019.77,0002.23
2024-06-06 16:59:00,SystemResetWarning,0833.7,5.00,000.00,030.1,029.6,000.0,038.3,031.9,027.8,0000.0,0003.98,0019.97,0002.24
